Weather reports worldwide

Advertisment
Köln-Bonn, Germany (10513): temperature & dewpoint: 14.10.2018 16:00:00 - 20.10.2018 16:00:00 (CEST)Köln-Bonn, Germany (10513): temperature 5cm & temperature -5cm: 14.10.2018 16:00:00 - 20.10.2018 16:00:00 (CEST)Köln-Bonn, Germany (10513): temperature -20cm & temperature -100cm: 14.10.2018 16:00:00 - 20.10.2018 16:00:00 (CEST)Köln-Bonn, Germany (10513): wind speed & gusts: 14.10.2018 16:00:00 - 20.10.2018 16:00:00 (CEST)Köln-Bonn, Germany (10513): wind direction: 14.10.2018 16:00:00 - 20.10.2018 16:00:00 (CEST)Köln-Bonn, Germany (10513): reduced air pressure: 14.10.2018 16:00:00 - 20.10.2018 16:00:00 (CEST)Köln-Bonn, Germany (10513): visibility: 14.10.2018 16:00:00 - 20.10.2018 16:00:00 (CEST)Köln-Bonn, Germany (10513): sunshine duration: 14.10.2018 16:00:00 - 20.10.2018 16:00:00 (CEST)Köln-Bonn, Germany (10513): precipitation: 14.10.2018 16:00:00 - 20.10.2018 16:00:00 (CEST)
Date & Time tt [°C] td [°C] tt 5cm [°C] tt -5cm [°C] tt -20cm [°C] tt -100cm [°C] ff [km/h] ff [kn] fx [km/h] fx [kn] dd ppp [hPa] vv [km] sd [min] rr [mm]
20.10.2018 16:00:00 14,6 6,1 16,2 18,3 14,2 15,7 9 5 16 9 WNW 1030,3 28 56 0,0
20.10.2018 15:00:00 14,9 6,8 17,6 18,4 13,6 15,7 4 2 9 5 WNW 1030,5 27 60 0,0
20.10.2018 14:00:00 13,0 6,4 18,4 17,5 13,1 15,7 3 2 11 6 E 1031,3 22 60 0,0
20.10.2018 13:00:00 11,5 6,9 15,4 15,2 12,7 15,7 4 2 9 5 SSW 1031,8 14 60 0,0
20.10.2018 12:00:00 8,3 6,9 10,7 12,6 12,5 15,7 4 2 7 4 - 1031,9 5 12 0,0
20.10.2018 11:00:00 7,3 7,3 8,4 11,0 12,4 15,7 4 2 9 5 - 1032,0 1,2 0 0,0
20.10.2018 10:00:00 6,6 6,6 7,3 10,0 12,5 15,7 4 2 6 3 - 1031,3 0,2 0 0,0
20.10.2018 09:00:00 5,9 5,9 6,3 8,9 12,7 15,7 4 2 9 5 - 1030,4 0,1 0 0,0
20.10.2018 08:00:00 4,6 4,5 3,6 8,4 13,0 15,7 2 1 4 2 - 1029,9 0,3 0 0,0
20.10.2018 07:00:00 4,6 4,4 1,9 8,8 13,3 15,8 2 1 5 3 WNW 1029,5 1,2 0 0,0
20.10.2018 06:00:00 5,5 5,4 1,9 9,5 13,5 15,8 0 0 13 7 N 1028,2 1,5 0 0,0
20.10.2018 05:00:00 6,8 6,5 3,2 10,4 13,7 15,8 4 2 11 6 - 1028,4 7 0 0,0
20.10.2018 04:00:00 7,8 7,2 5,6 11,1 13,9 15,8 8 5 9 5 NW 1027,9 10 0 0,0
20.10.2018 03:00:00 8,6 8,2 6,7 11,5 14,1 15,8 2 1 4 2 WNW 1027,2 12 0 0,0
20.10.2018 02:00:00 9,3 8,6 7,8 11,7 14,3 15,8 2 1 4 2 WSW 1027,1 12 0 0,0
20.10.2018 01:00:00 9,1 8,5 6,5 12,2 14,4 15,8 2 1 4 2 NW 1026,6 15 0 0,0
20.10.2018 00:00:00 10,6 9,7 9,9 12,6 14,6 15,8 2 1 4 2 - 1026,3 10 0 0,0
19.10.2018 23:00:00 10,4 9,6 9,5 12,7 14,8 15,8 2 1 5 3 ESE 1026,0 16 0 0,0
19.10.2018 22:00:00 11,1 10,0 10,0 12,8 15,1 15,9 5 3 5 3 E 1025,8 16 0 0,0
19.10.2018 21:00:00 9,7 8,9 7,5 13,3 15,3 15,9 4 2 5 3 E 1025,6 16 0 0,0
19.10.2018 20:00:00 11,0 9,4 8,5 14,4 15,5 15,9 2 1 8 4 NE 1024,9 10 0 0,0
19.10.2018 19:00:00 11,8 9,3 9,9 15,8 15,6 15,9 4 2 4 2 - 1024,3 10 3 0,0
19.10.2018 18:00:00 15,3 9,7 14,2 17,6 15,5 15,9 4 2 13 7 - 1023,4 10 60 0,0
19.10.2018 17:00:00 16,0 9,5 17,4 18,9 15,1 16,0 6 3 15 8 ESE 1023,4 25 60 0,0
19.10.2018 16:00:00 16,5 9,2 19,5 18,9 14,7 16,0 8 4 14 8 SSE 1023,6 10 53 0,0
19.10.2018 15:00:00 16,0 9,6 18,7 18,7 14,1 16,0 2 1 11 6 SSE 1024,0 25 28 0,0
19.10.2018 14:00:00 15,7 9,2 20,1 18,6 13,5 16,0 8 4 11 6 S 1024,2 10 60 0,0
19.10.2018 13:00:00 14,0 9,6 17,3 16,2 13,0 16,0 5 3 9 5 - 1024,7 10 60 0,0
19.10.2018 12:00:00 11,5 9,5 14,1 13,4 12,8 16,0 4 2 5 3 - 1025,3 7 13 0,0
19.10.2018 11:00:00 8,4 8,0 9,6 11,5 12,7 16,0 4 2 9 5 - 1025,5 0,9 0 0,0
19.10.2018 10:00:00 8,0 8,0 8,5 10,1 12,7 16,0 5 3 9 5 S 1025,3 1,2 0 0,0
19.10.2018 09:00:00 6,3 6,3 6,8 8,9 12,9 16,0 2 1 8 4 - 1025,1 0,8 0 0,0
19.10.2018 08:00:00 4,6 4,3 2,6 8,6 13,1 16,0 2 1 8 4 - 1024,8 5 0 0,0
19.10.2018 07:00:00 4,6 4,2 2,6 9,0 13,4 16,0 5 3 6 3 SE 1024,7 5 0 0,0
19.10.2018 06:00:00 6,3 6,3 3,1 9,4 13,6 16,0 4 2 8 4 - 1024,4 5 0 0,0
19.10.2018 05:00:00 6,4 6,2 3,9 9,8 13,8 16,0 7 4 9 5 ESE 1024,3 0,7 0 0,0
19.10.2018 04:00:00 7,0 6,9 4,6 9,9 14,1 16,0 6 3 8 4 ESE 1024,3 0,6 0 0,0
19.10.2018 03:00:00 7,5 7,4 5,2 10,3 14,4 16,0 6 3 8 4 ESE 1024,3 0,7 0 0,0
19.10.2018 02:00:00 7,8 7,5 4,6 10,7 14,7 16,1 2 1 5 3 ESE 1024,6 1,4 0 0,0
19.10.2018 01:00:00 8,3 8,0 5,1 11,2 15,0 16,1 2 1 5 3 SE 1024,4 2,0 0 0,0
19.10.2018 00:00:00 9,1 8,7 4,7 11,8 15,3 16,1 4 2 5 3 ENE 1024,5 10 0 0,0
18.10.2018 23:00:00 10,6 9,4 7,2 12,4 15,6 16,1 8 4 9 5 NE 1024,5 10 0 0,0
18.10.2018 22:00:00 11,3 9,6 8,2 12,9 15,8 16,1 6 4 13 7 NNE 1024,3 35 0 0,0
18.10.2018 21:00:00 11,8 9,2 8,7 13,6 16,1 16,1 4 2 13 7 NNE 1023,8 50 0 0,0
18.10.2018 20:00:00 12,7 8,9 8,8 14,6 16,4 16,1 8 4 15 8 NE 1023,5 10 0 0,0
18.10.2018 19:00:00 13,1 9,1 9,5 16,1 16,4 16,1 10 5 16 9 NNE 1023,1 50 10 0,0
18.10.2018 18:00:00 16,8 9,0 16,1 17,6 16,4 16,1 13 7 18 10 NNE 1022,8 45 60 0,0
18.10.2018 17:00:00 17,1 9,5 17,9 17,9 16,2 16,1 12 6 22 12 NNE 1022,8 30 4 0,0
18.10.2018 16:00:00 17,2 10,9 17,8 18,2 16,0 16,1 8 4 20 11 N 1023,0 10 0 0,0
18.10.2018 15:00:00 17,0 10,4 18,5 18,7 15,7 16,1 16 9 22 12 N 1022,9 17 26 0,0
18.10.2018 14:00:00 16,4 11,1 18,1 17,5 15,5 16,1 9 5 21 11 NNE 1023,2 10 0 0,0
18.10.2018 13:00:00 16,1 12,0 17,0 16,8 15,3 16,1 16 8 23 12 NNE 1023,5 18 0 0,0
18.10.2018 12:00:00 15,3 12,1 16,5 16,6 15,1 16,1 13 7 22 12 N 1023,4 9 0 0,0
18.10.2018 11:00:00 14,2 12,5 16,5 14,7 15,0 16,1 5 3 13 7 NNW 1023,1 6 0 0,0
18.10.2018 10:00:00 12,6 11,9 12,9 13,3 15,1 16,1 6 3 9 5 NNW 1023,1 4,5 0 0,0
18.10.2018 09:00:00 11,4 11,2 9,9 12,9 15,2 16,1 3 2 5 3 SSW 1022,8 2,2 0 0,0
18.10.2018 08:00:00 11,7 11,4 9,2 13,5 15,3 16,1 2 1 8 4 W 1022,4 4,0 0 0,0
18.10.2018 07:00:00 12,0 11,5 11,9 13,6 15,4 16,1 2 1 4 2 S 1021,8 4,5 0 0,0
18.10.2018 06:00:00 11,4 11,2 11,4 13,3 15,5 16,1 3 2 11 6 N 1021,7 1,0 0 0,0
18.10.2018 05:00:00 11,3 11,1 10,5 13,0 15,7 16,1 4 2 9 5 - 1021,3 1,6 0 0,0
18.10.2018 04:00:00 10,7 10,5 9,3 12,8 16,0 16,1 4 2 4 2 - 1021,1 2,8 0 0,0
18.10.2018 03:00:00 10,8 10,6 7,6 13,2 16,3 16,1 5 3 5 3 SSE 1020,9 3,5 0 0,0
18.10.2018 02:00:00 10,8 10,4 7,6 13,8 16,6 16,1 2 1 4 2 NE 1021,0 6 0 0,0
18.10.2018 01:00:00 12,8 11,3 10,0 14,4 16,8 16,1 5 3 4 2 NW 1020,8 9 0 0,0
18.10.2018 00:00:00 13,0 11,3 10,5 14,9 17,1 16,1 3 1 4 2 ESE 1020,5 13 0 0,0
17.10.2018 23:00:00 13,2 11,3 10,7 15,5 17,4 16,1 5 3 9 5 NW 1020,4 10 0 0,0
17.10.2018 22:00:00 13,6 11,3 11,4 16,1 17,7 16,1 6 4 11 6 NNW 1020,0 25 0 0,0
17.10.2018 21:00:00 14,7 11,6 11,4 16,9 18,0 16,1 2 1 11 6 - 1019,6 10 0 0,0
17.10.2018 20:00:00 16,3 11,6 12,9 18,1 18,3 16,1 5 3 13 7 NNE 1019,0 10 0 0,0
17.10.2018 19:00:00 17,5 11,9 14,3 19,7 18,3 16,1 9 5 13 7 NNW 1018,4 40 8 0,0
17.10.2018 18:00:00 20,6 11,7 19,8 21,8 18,2 16,1 9 5 14 7 NNW 1017,9 10 60 0,0
17.10.2018 17:00:00 23,0 10,9 24,3 23,5 17,7 16,2 5 3 9 5 W 1017,6 10 60 0,0
17.10.2018 16:00:00 23,4 12,0 26,7 23,8 17,1 16,2 8 4 8 4 W 1017,8 10 60 0,0
17.10.2018 15:00:00 22,5 11,1 26,0 23,1 16,4 16,2 4 2 8 4 - 1018,2 10 60 0,0
17.10.2018 14:00:00 21,9 11,1 25,7 21,8 15,8 16,2 2 1 8 4 - 1018,7 10 60 0,0
17.10.2018 13:00:00 19,6 11,1 23,4 19,5 15,3 16,2 4 2 13 7 - 1019,2 10 60 0,0
17.10.2018 12:00:00 17,7 11,3 19,9 17,0 15,0 16,1 9 5 13 7 SSE 1019,6 10 60 0,0
17.10.2018 11:00:00 15,2 10,8 16,7 14,4 14,9 16,1 7 4 15 8 ESE 1019,7 23 51 0,0
17.10.2018 10:00:00 12,1 10,3 13,3 12,8 15,0 16,1 5 3 13 7 SSE 1019,9 10 22 0,0
17.10.2018 09:00:00 10,9 9,4 9,6 11,9 15,2 16,1 5 3 16 9 E 1019,5 10 0 0,0
17.10.2018 08:00:00 8,5 8,0 7,6 11,9 15,4 16,1 7 4 11 6 SSE 1019,4 23 0 0,0
17.10.2018 07:00:00 9,3 8,4 6,9 12,2 15,7 16,1 2 1 9 5 - 1019,1 10 0 0,0
17.10.2018 06:00:00 9,2 8,4 7,3 12,6 15,9 16,1 2 1 11 6 - 1019,0 10 0 0,0
17.10.2018 05:00:00 10,5 9,2 7,7 13,1 16,2 16,1 5 3 15 8 ENE 1019,0 10 0 0,0
17.10.2018 04:00:00 10,5 9,2 9,0 13,5 16,5 16,1 5 3 15 8 ESE 1019,2 10 0 0,0
17.10.2018 03:00:00 14,4 10,8 11,1 13,9 16,8 16,1 8 5 11 6 SE 1019,2 30 0 0,0
17.10.2018 02:00:00 12,2 10,1 8,8 14,4 17,1 16,1 8 4 11 6 NE 1019,4 10 0 0,0
17.10.2018 01:00:00 12,5 10,8 8,6 15,0 17,4 16,1 9 5 11 6 E 1019,8 25 0 0,0
17.10.2018 00:00:00 13,0 11,0 10,8 15,8 17,7 16,1 4 2 15 8 - 1019,8 10 0 0,0
16.10.2018 23:00:00 14,9 11,4 12,3 16,6 17,9 16,1 8 4 13 7 NE 1019,9 10 0 0,0
16.10.2018 22:00:00 18,1 11,6 15,3 17,2 18,2 16,1 5 3 15 8 ESE 1019,6 10 0 0,0
16.10.2018 21:00:00 19,0 11,7 16,3 18,0 18,4 16,1 4 2 13 7 - 1019,1 10 0 0,0
16.10.2018 20:00:00 18,5 11,7 16,2 18,7 18,7 16,1 13 7 22 12 E 1018,9 45 0 0,0
16.10.2018 19:00:00 17,7 11,3 15,4 20,0 18,8 16,1 5 3 5 3 ENE 1018,5 10 5 0,0
16.10.2018 18:00:00 19,8 12,1 18,2 21,8 18,7 16,1 4 2 8 4 NE 1018,1 10 19 0,0
16.10.2018 17:00:00 24,8 9,4 25,3 24,0 18,3 16,1 2 1 9 5 - 1018,2 10 60 0,0
16.10.2018 16:00:00 24,9 9,2 28,4 24,7 17,7 16,1 4 2 11 6 W 1018,2 50 60 0,0
16.10.2018 15:00:00 24,6 10,0 27,7 24,4 17,0 16,1 5 3 9 5 SSE 1018,4 50 60 0,0
16.10.2018 14:00:00 23,6 9,7 27,3 23,1 16,3 16,1 4 2 9 5 - 1018,6 10 60 0,0
16.10.2018 13:00:00 22,2 9,9 25,1 20,9 15,7 16,1 5 3 8 4 SSW 1018,8 50 60 0,0
16.10.2018 12:00:00 19,6 10,1 22,3 18,2 15,3 16,1 5 3 9 5 S 1019,1 45 60 0,0
16.10.2018 11:00:00 17,2 9,9 19,4 15,6 15,2 16,1 9 5 10 5 SSE 1019,3 10 54 0,0
16.10.2018 10:00:00 13,7 9,7 14,3 14,1 15,2 16,1 9 5 8 4 SSE 1019,3 10 59 0,0
16.10.2018 09:00:00 11,3 9,5 11,5 13,0 15,3 16,1 4 2 11 6 SE 1019,2 40 1 0,0
16.10.2018 08:00:00 10,1 9,0 9,6 12,8 15,4 16,1 5 3 11 6 SE 1018,7 10 0 0,0
16.10.2018 07:00:00 10,0 8,7 9,6 12,8 15,6 16,1 8 4 9 5 SE 1018,4 10 0 0,0
16.10.2018 06:00:00 9,9 8,7 9,3 12,7 15,8 16,1 8 5 11 6 SE 1018,0 50 0 0,0
16.10.2018 05:00:00 9,2 8,4 8,3 12,4 16,1 16,1 7 4 9 5 SE 1018,1 50 0 0,0
16.10.2018 04:00:00 8,4 7,8 6,3 12,6 16,5 16,1 6 3 11 6 SE 1017,8 50 0 0,0
16.10.2018 03:00:00 9,2 8,5 5,8 13,1 16,8 16,0 2 1 9 5 - 1017,4 10 0 0,0
16.10.2018 02:00:00 9,8 8,7 7,1 13,7 17,2 16,0 4 2 13 7 - 1017,1 10 0 0,0
16.10.2018 01:00:00 10,4 9,0 8,0 14,3 17,6 16,0 9 5 9 5 ENE 1016,5 10 0 0,0
16.10.2018 00:00:00 11,0 9,3 8,4 15,1 18,0 16,0 7 4 9 5 ESE 1016,3 50 0 0,0
15.10.2018 23:00:00 12,4 9,9 9,2 15,9 18,4 16,0 2 1 9 5 E 1016,2 10 0 0,0
15.10.2018 22:00:00 13,5 10,2 10,5 16,9 18,7 16,0 8 4 11 6 ENE 1015,6 10 0 0,0
15.10.2018 21:00:00 14,8 10,4 10,9 18,1 19,1 16,0 8 4 13 7 ESE 1015,1 60 0 0,0
15.10.2018 20:00:00 17,7 10,2 14,3 19,6 19,3 16,0 8 4 11 6 ENE 1014,7 10 0 0,0
15.10.2018 19:00:00 19,7 12,2 17,0 21,5 19,4 16,0 5 3 8 4 SE 1014,1 60 21 0,0
15.10.2018 18:00:00 23,2 11,8 21,9 23,2 19,2 16,0 6 3 11 6 ESE 1013,3 55 57 0,0
15.10.2018 17:00:00 25,4 8,1 26,1 24,5 18,8 16,0 5 3 13 7 ESE 1012,9 60 60 0,0
15.10.2018 16:00:00 25,2 8,0 27,3 25,1 18,2 16,0 8 4 16 9 SSE 1012,7 10 60 0,0
15.10.2018 15:00:00 25,1 7,6 28,0 24,8 17,5 16,0 9 5 16 9 - 1012,9 10 60 0,0
15.10.2018 14:00:00 24,6 8,9 27,4 23,6 16,9 16,0 9 5 16 9 S 1013,0 10 60 0,0
15.10.2018 13:00:00 23,3 10,1 26,0 21,5 16,3 16,0 11 6 16 9 SSE 1013,5 10 60 0,0
15.10.2018 12:00:00 21,6 10,5 23,6 18,8 16,0 16,0 13 7 16 9 SE 1013,7 10 60 0,0
15.10.2018 11:00:00 18,6 10,2 20,0 15,8 15,9 16,0 11 6 21 11 SE 1013,7 50 35 0,0
15.10.2018 10:00:00 16,9 10,0 17,4 14,6 16,0 16,0 9 5 22 12 ESE 1013,5 10 38 0,0
15.10.2018 09:00:00 15,2 9,7 13,4 13,9 16,2 15,9 9 5 16 9 ESE 1013,2 10 0 0,0
15.10.2018 08:00:00 12,7 9,2 11,3 14,0 16,5 15,9 5 3 13 7 SE 1012,7 10 0 0,0
15.10.2018 07:00:00 14,5 9,7 12,3 14,5 16,7 15,9 8 4 12 7 SE 1011,9 10 0 0,0
15.10.2018 06:00:00 16,3 9,5 13,9 14,9 16,9 15,9 4 2 15 8 - 1011,4 10 0 0,0
15.10.2018 05:00:00 16,0 9,6 11,9 15,3 17,0 15,9 7 4 15 8 ESE 1011,3 50 0 0,0
15.10.2018 04:00:00 15,8 10,6 13,6 16,0 17,2 15,9 11 6 15 8 ENE 1011,4 10 0 0,0
15.10.2018 03:00:00 17,4 10,5 15,8 16,0 17,4 15,9 5 3 15 8 ESE 1011,2 10 0 0,0
15.10.2018 02:00:00 18,2 10,7 17,1 16,1 17,6 15,9 5 3 16 9 ESE 1011,3 10 0 0,0
15.10.2018 01:00:00 18,0 10,5 16,1 16,2 17,8 15,9 11 6 16 9 ESE 1010,8 10 0 0,0
15.10.2018 00:00:00 18,1 10,5 16,0 16,7 18,1 15,9 9 5 21 11 ESE 1010,6 10 0 0,0
14.10.2018 23:00:00 18,8 10,6 16,7 17,2 18,4 15,9 16 8 21 11 SE 1010,3 50 0 0,0
14.10.2018 22:00:00 19,0 10,5 16,9 17,8 18,6 15,8 13 7 22 12 SE 1010,0 55 0 0,0
14.10.2018 21:00:00 19,9 10,7 17,9 18,5 18,9 15,8 11 6 21 11 ESE 1009,8 10 0 0,0
14.10.2018 20:00:00 20,9 10,7 18,8 19,5 19,1 15,8 13 7 16 9 ESE 1009,8 10 0 0,0
14.10.2018 19:00:00 21,9 10,9 19,5 20,8 19,2 15,8 14 8 31 17 ESE 1009,4 60 12 0,0
14.10.2018 18:00:00 23,9 10,8 23,0 22,7 19,1 15,8 21 11 39 21 SE 1008,8 10 60 0,0
14.10.2018 17:00:00 24,7 10,0 25,0 24,0 18,8 15,8 28 15 42 23 SSE 1009,4 10 60 0,0
14.10.2018 16:00:00 25,0 11,8 26,3 24,7 18,3 15,8 25 13 41 22 SE 1009,6 50 60 0,0

tt = temperature
td = dewpoint
tt 5cm = temperature 5cm
tt -5cm = temperature -5cm
tt -20cm = temperature -20cm
tt -100cm = temperature -100cm
ff = wind speed
fx = gusts
dd = wind direction
ppp = reduced air pressure
vv = visibility
sd = sunshine duration
rr = precipitation

Next stations